Location: Newark
(63.1158°N, 8.1461°E)
Time: 20:16:42
(UTC+00:00)

Envisat - Pass Details

Date: 19 December 2019
Orbit: 764 x 766 km, 98.1° (Epoch: 26 January)

Event Time Altitude Azimuth Distance (km) Brightness Sun altitude
Rises 18:47:02 0° 215° (SW) 3,231 6.6 -30.0°
Reaches altitude 10° 18:50:01 10° 233° (SW) 2,310 6.0 -30.4°
Maximum altitude 18:53:33 19° 277° (W) 1,789 5.6 -30.8°
Drops below altitude 10° 18:57:06 10° 322° (NW) 2,320 6.0 -31.2°
Sets 19:00:08 0° 340° (NNW) 3,251 6.6 -31.5°
